OBJECT BD (43809 NORAD) Tracking and Keplerian Element Data

This shows tracking and keplerian element data for the satellite.

Feedback or suggestion? Click here.




ElementValue
Catalog43809
NameOBJECT BD
Epoch Orbit1377
Epoch Day66.97060322
Epoch Year2019
RAAN140.1864
Inclination97.7542
Eccentricity0.0014226
Argument of Perigee317.3978
Mean Anonmoly42.6138
Mean Motion14.95339252
Decay Rate-1.03E-06
L11 43809U 18099BD 19066.97060322 -.00000103 00000-0 -40056-5 0 9998
L22 43809 97.7542 140.1864 0014226 317.3978 42.6138 14.95339252 13772

Live tracking and technical data element details for OBJECT BD (NORAD 43809). OBJECT BD can be tracked NOW for your location showing map with azimuth and elevation plus other details from your city location.

Track the satellite on the map from your city or location and see movement details for azimuth, elevation, latitude, longitude, range, height, and movement on the map or in text.







IsCatalogInMostPopularTable: catalog: 43809, numindb: 67
Update: records affected: 1



GetName: 43809 OBJECT BD

Hit Count: updated at: Tue, 20 Aug 2019 18:48:14 GMT